{"data":{"norad_id":56690,"intl_designator":"2023-067C","name":"STARLINK-30124","alt_names":[],"object_type":"PAYLOAD","status":"ACTIVE","operator":null,"country":"US","launch_date":"2023-05-19","launch_site_code":"AFETR","launch_vehicle":null,"mission":null,"orbit_class":"UNKNOWN","rcs_meters":null,"size_class":null,"mass_kg":null,"dimensions":null,"purposes":["comms"],"wikipedia_slug":null,"has_3d_model":false,"image_url":null,"decayed_at":null,"tle_current":{"epoch":"2026-09-20T10:31:56.711712Z","epoch_age_seconds":120240,"freshness":"FRESH","line1":"1 56690U 23067C   26263.43885083  .00000108  00000+0  13469-4 0  9997","line2":"2 56690  43.0039 261.4877 0001350 279.5419  80.5280 15.27578701185367","mean_motion":15.27578701,"eccentricity":0.000135,"inclination_deg":43.0039,"raan_deg":261.4877,"arg_perigee_deg":279.5419,"mean_anomaly_deg":80.528,"bstar":1.3469e-5,"rev_number":18536,"period_min":94.266828874829,"perigee_km":482.12672506765,"apogee_km":483.97924636379,"semimajor_km":6861.1899857157,"source":"CELESTRAK","updated_at":"2026-09-21T09:00:33.481154Z"}}}